This is the latest recevied weather packets stored in our database for station/object YO6LRV-3. If no packets are shown the sender has not sent any weather packets the latest 10 day(s).
| Time | Temp. | Humidity | Pressure | Rain* | Wind** | Luminosity | Snow |
|---|---|---|---|---|---|---|---|
| 1777604757 | 1.67° C | 68% | 1023.2 hPa | - | - | - | - |
| 1777603857 | 1.67° C | 69% | 1023.2 hPa | - | - | - | - |
| 1777602957 | 1.67° C | 69% | 1023.1 hPa | - | - | - | - |
| 1777602057 | 2.22° C | 69% | 1023.1 hPa | - | - | - | - |
| 1777601157 | 2.22° C | 68% | 1023.2 hPa | - | - | - | - |
| 1777600257 | 2.22° C | 68% | 1023.4 hPa | - | - | - | - |
| 1777599357 | 2.78° C | 67% | 1023.5 hPa | - | - | - | - |
| 1777598457 | 2.78° C | 67% | 1023.4 hPa | - | - | - | - |
| 1777597559 | 2.78° C | 66% | 1023.7 hPa | - | - | - | - |
| 1777596659 | 2.78° C | 65% | 1023.6 hPa | - | - | - | - |
| 1777595759 | 2.78° C | 65% | 1023.5 hPa | - | - | - | - |
| 1777594858 | 3.33° C | 65% | 1023.6 hPa | - | - | - | - |
| 1777593958 | 3.33° C | 67% | 1023.6 hPa | - | - | - | - |
| 1777593058 | 3.33° C | 67% | 1023.6 hPa | - | - | - | - |
| 1777592158 | 3.33° C | 65% | 1023.7 hPa | - | - | - | - |
| 1777591258 | 3.33° C | 65% | 1023.7 hPa | - | - | - | - |
| 1777590358 | 3.89° C | 65% | 1023.7 hPa | - | - | - | - |
| 1777589458 | 3.89° C | 66% | 1023.7 hPa | - | - | - | - |
| 1777588557 | 3.89° C | 67% | 1023.7 hPa | - | - | - | - |
| 1777587657 | 3.89° C | 68% | 1023.7 hPa | - | - | - | - |
| 1777586757 | 3.89° C | 69% | 1023.7 hPa | - | - | - | - |
| 1777585857 | 4.44° C | 67% | 1023.7 hPa | - | - | - | - |
| 1777584057 | 4.44° C | 62% | 1023.5 hPa | - | - | - | - |
| 1777582257 | 5° C | 61% | 1023.4 hPa | - | - | - | - |
| 1777580456 | 5° C | 61% | 1023.5 hPa | - | - | - | - |
* Rain since midnight (hover to see other rain measurements)
** Current wind speed in m/s (hover to see current wind gust speed)